Simultaneous Nadir Overpasses (SNOs) Predictions

Prediction of SNOs between FY3D and AQUA Satellite Orbit:

Table of predicted SNOs for the next 14.0 days since TLE Epoch: 11/4/2023
Index Date (FY3D) Time (FY3D) Lat,Lon (FY3D) SZA (FY3D ) Date (AQUA) Time (AQUA) Lat,Lon (AQUA) SZA (AQUA ) Distance(km) Time Diff (sec)
1 11/04/2023 20:56:40 79.04,-153.76 94.86 11/04/2023 20:57:22 79.05,-153.88 94.86 2.68 42
2 11/04/2023 21:47:16 -78.71, 15.81 85.56 11/04/2023 21:46:37 -78.72, 15.72 85.54 2.14 39
3 11/07/2023 09:51:29 79.22, 11.23 95.86 11/07/2023 09:52:37 79.21, 11.32 95.83 1.92 68
4 11/07/2023 10:42:06 -78.94,-179.37 84.51 11/07/2023 10:41:53 -78.93,-179.24 84.53 3.07 13
5 11/09/2023 23:36:51 -78.99, -13.38 83.71 11/09/2023 23:37:04 -78.99, -13.36 83.72 0.68 13
6 11/10/2023 00:27:28 78.67, 156.16 95.89 11/10/2023 00:26:20 78.67, 156.16 95.90 0.13 68
7 11/12/2023 12:31:35 -79.02, 152.80 82.97 11/12/2023 12:32:13 -79.03, 152.66 82.96 3.06 38
8 11/12/2023 13:22:15 78.80, -38.37 96.76 11/12/2023 13:21:31 78.79, -38.30 96.76 1.80 44
9 11/15/2023 01:26:21 -79.15, -41.85 82.12 11/15/2023 01:27:22 -79.16, -41.92 82.12 1.70 61
10 11/15/2023 02:17:01 78.94, 127.02 97.61 11/15/2023 02:16:40 78.93, 127.13 97.61 2.28 21



Historial Predications of SNOs between FY3D and AQUA
